Time,TemperatureF,DewpointF,PressureIn,WindDirection,WindDirectionDegrees,WindSpeedMPH,WindSpeedGustMPH,Humidity,HourlyPrecipIn,Conditions,Clouds,dailyrainin,SolarRadiationWatts/m^2,SoftwareType,DateUTC
2013-01-20 00:05:00,66.0,63.6,30.02,South,184,0.0,0.0,92,0.00,,,0.00,0,Wunderground v.1.15,2013-01-20 05:05:00,
2013-01-20 00:10:00,65.8,63.4,30.02,South,184,0.0,0.0,92,0.00,,,0.00,0,Wunderground v.1.15,2013-01-20 05:10:00,
2013-01-20 00:15:00,65.8,63.4,30.02,South,184,0.0,0.0,92,0.00,,,0.00,0,Wunderground v.1.15,2013-01-20 05:15:00,
2013-01-20 00:20:00,65.8,63.4,30.02,South,184,0.0,0.0,92,0.00,,,0.00,0,Wunderground v.1.15,2013-01-20 05:20:00,
2013-01-20 00:25:00,65.8,63.4,30.02,South,184,0.0,0.0,92,0.00,,,0.00,0,Wunderground v.1.15,2013-01-20 05:25:00,
2013-01-20 00:30:00,65.6,63.2,30.02,South,184,0.0,0.0,92,0.00,,,0.00,0,Wunderground v.1.15,2013-01-20 05:30:00,
2013-01-20 00:35:00,65.6,63.2,30.02,South,184,0.0,0.0,92,0.00,,,0.00,0,Wunderground v.1.15,2013-01-20 05:35:00,
2013-01-20 00:45:00,65.5,63.1,30.02,South,184,0.0,0.0,92,0.00,,,0.00,0,Wunderground v.1.15,2013-01-20 05:45:00,
2013-01-20 00:50:00,65.3,62.9,30.02,South,184,0.0,0.0,92,0.00,,,0.00,0,Wunderground v.1.15,2013-01-20 05:50:00,
2013-01-20 00:55:00,65.3,63.2,30.02,South,184,0.0,0.0,93,0.00,,,0.00,0,Wunderground v.1.15,2013-01-20 05:55:00,
2013-01-20 01:00:00,65.2,63.1,30.01,South,184,0.0,0.0,93,0.00,,,0.00,0,Wunderground v.1.15,2013-01-20 06:00:00,
2013-01-20 01:05:00,65.2,63.1,30.01,South,184,0.0,0.0,93,0.00,,,0.00,0,Wunderground v.1.15,2013-01-20 06:05:00,
2013-01-20 01:15:00,65.0,62.9,30.01,South,184,0.0,0.0,93,0.00,,,0.00,0,Wunderground v.1.15,2013-01-20 06:15:00,
2013-01-20 01:20:00,65.0,62.9,30.01,South,184,0.0,0.0,93,0.00,,,0.00,0,Wunderground v.1.15,2013-01-20 06:20:00,
2013-01-20 01:30:00,65.2,63.1,30.01,South,184,0.0,0.0,93,0.00,,,0.00,0,Wunderground v.1.15,2013-01-20 06:30:00,
2013-01-20 01:35:00,65.2,63.1,30.01,South,184,0.0,0.0,93,0.00,,,0.00,0,Wunderground v.1.15,2013-01-20 06:35:00,
2013-01-20 01:40:00,65.2,63.1,30.01,South,186,0.0,0.0,93,0.00,,,0.00,0,Wunderground v.1.15,2013-01-20 06:40:00,
2013-01-20 01:45:00,65.3,63.2,30.01,South,186,0.0,0.0,93,0.00,,,0.00,0,Wunderground v.1.15,2013-01-20 06:45:00,
2013-01-20 01:50:00,65.3,63.2,30.01,South,186,0.0,0.0,93,0.00,,,0.00,0,Wunderground v.1.15,2013-01-20 06:50:00,
2013-01-20 01:55:00,65.3,63.5,30.01,South,186,0.0,0.0,94,0.00,,,0.00,0,Wunderground v.1.15,2013-01-20 06:55:00,
2013-01-20 02:00:00,65.2,63.4,30.00,South,186,0.0,0.0,94,0.00,,,0.00,0,Wunderground v.1.15,2013-01-20 07:00:00,
2013-01-20 02:05:00,65.2,63.4,30.00,South,186,0.0,0.0,94,0.00,,,0.00,0,Wunderground v.1.15,2013-01-20 07:05:00,
2013-01-20 02:15:00,65.0,63.2,30.00,South,186,0.0,0.0,94,0.00,,,0.00,0,Wunderground v.1.15,2013-01-20 07:15:00,
2013-01-20 02:20:00,64.8,63.0,30.00,South,186,0.0,0.0,94,0.00,,,0.00,0,Wunderground v.1.15,2013-01-20 07:20:00,
2013-01-20 02:30:00,64.8,63.0,29.99,South,186,0.0,0.0,94,0.00,,,0.00,0,Wunderground v.1.15,2013-01-20 07:30:00,
2013-01-20 02:35:00,64.7,62.9,29.99,South,186,0.0,0.0,94,0.00,,,0.00,0,Wunderground v.1.15,2013-01-20 07:35:00,
2013-01-20 02:40:00,64.7,62.9,29.99,South,186,0.0,0.0,94,0.00,,,0.00,0,Wunderground v.1.15,2013-01-20 07:40:00,
2013-01-20 02:45:00,64.7,62.9,29.99,South,186,0.0,0.0,94,0.00,,,0.01,0,Wunderground v.1.15,2013-01-20 07:45:00,
2013-01-20 02:50:00,64.7,62.9,29.99,South,186,0.0,0.0,94,0.00,,,0.01,0,Wunderground v.1.15,2013-01-20 07:50:00,
2013-01-20 02:55:00,64.5,62.7,29.99,South,186,0.0,0.0,94,0.00,,,0.01,0,Wunderground v.1.15,2013-01-20 07:55:00,
2013-01-20 03:00:00,64.5,62.7,29.99,South,186,0.0,0.0,94,0.00,,,0.01,0,Wunderground v.1.15,2013-01-20 08:00:00,
2013-01-20 03:05:00,64.5,62.7,29.99,South,186,0.0,0.0,94,0.00,,,0.01,0,Wunderground v.1.15,2013-01-20 08:05:00,
2013-01-20 03:15:00,64.5,62.7,29.99,South,186,0.0,0.0,94,0.00,,,0.01,0,Wunderground v.1.15,2013-01-20 08:15:00,
2013-01-20 03:20:00,64.5,62.7,29.99,South,185,0.0,0.0,94,0.00,,,0.01,0,Wunderground v.1.15,2013-01-20 08:20:00,
2013-01-20 03:30:00,64.3,62.5,29.99,South,185,0.0,0.0,94,0.00,,,0.01,0,Wunderground v.1.15,2013-01-20 08:30:00,
2013-01-20 03:35:00,64.3,62.8,29.99,South,186,0.0,0.0,95,0.00,,,0.01,0,Wunderground v.1.15,2013-01-20 08:35:00,
2013-01-20 03:40:00,64.3,62.8,29.99,South,186,0.0,0.0,95,0.00,,,0.01,0,Wunderground v.1.15,2013-01-20 08:40:00,
2013-01-20 03:45:00,64.3,62.8,29.99,South,186,0.0,0.0,95,0.00,,,0.01,0,Wunderground v.1.15,2013-01-20 08:45:00,
2013-01-20 03:50:00,64.3,62.8,29.99,South,186,0.0,0.0,95,0.00,,,0.01,0,Wunderground v.1.15,2013-01-20 08:50:00,
2013-01-20 04:00:00,64.5,63.0,29.98,South,185,0.0,0.0,95,0.00,,,0.01,0,Wunderground v.1.15,2013-01-20 09:00:00,
2013-01-20 04:05:00,64.5,63.0,29.98,South,186,0.0,0.0,95,0.00,,,0.01,0,Wunderground v.1.15,2013-01-20 09:05:00,
2013-01-20 04:15:00,64.3,62.8,29.99,South,186,0.0,0.0,95,0.00,,,0.01,0,Wunderground v.1.15,2013-01-20 09:15:00,
2013-01-20 04:20:00,64.3,62.8,29.99,South,186,0.0,0.0,95,0.00,,,0.01,0,Wunderground v.1.15,2013-01-20 09:20:00,
2013-01-20 04:25:00,64.3,62.8,29.99,South,186,0.0,0.0,95,0.00,,,0.01,0,Wunderground v.1.15,2013-01-20 09:25:00,
2013-01-20 04:30:00,64.3,62.8,29.99,South,186,0.0,0.0,95,0.00,,,0.01,0,Wunderground v.1.15,2013-01-20 09:30:00,
2013-01-20 04:35:00,64.3,62.8,29.99,South,186,0.0,0.0,95,0.00,,,0.01,0,Wunderground v.1.15,2013-01-20 09:35:00,
2013-01-20 04:40:00,64.3,62.8,29.99,South,186,0.0,0.0,95,0.00,,,0.01,0,Wunderground v.1.15,2013-01-20 09:40:00,
2013-01-20 04:45:00,64.3,62.8,29.99,South,186,0.0,0.0,95,0.00,,,0.01,0,Wunderground v.1.15,2013-01-20 09:45:00,
2013-01-20 04:55:00,64.2,62.7,29.99,South,186,0.0,0.0,95,0.00,,,0.01,0,Wunderground v.1.15,2013-01-20 09:55:00,
2013-01-20 05:00:00,64.2,62.7,29.99,South,186,0.0,0.0,95,0.00,,,0.01,0,Wunderground v.1.15,2013-01-20 10:00:00,
2013-01-20 05:05:00,64.2,62.7,29.99,South,185,0.0,0.0,95,0.00,,,0.01,0,Wunderground v.1.15,2013-01-20 10:05:00,
2013-01-20 05:15:00,64.2,62.7,30.00,South,186,0.0,0.0,95,0.00,,,0.01,0,Wunderground v.1.15,2013-01-20 10:15:00,
2013-01-20 05:20:00,64.0,62.5,30.00,South,186,0.0,0.0,95,0.00,,,0.01,0,Wunderground v.1.15,2013-01-20 10:20:00,
2013-01-20 05:25:00,64.2,62.7,30.00,South,186,0.0,0.0,95,0.00,,,0.01,0,Wunderground v.1.15,2013-01-20 10:25:00,
2013-01-20 05:30:00,64.2,62.7,30.01,South,185,0.0,0.0,95,0.00,,,0.01,0,Wunderground v.1.15,2013-01-20 10:30:00,
2013-01-20 05:40:00,64.3,62.8,30.01,ESE,106,0.0,0.0,95,0.00,,,0.01,0,Wunderground v.1.15,2013-01-20 10:40:00,
2013-01-20 05:45:00,64.5,63.3,30.01,ESE,106,0.0,0.0,96,0.00,,,0.01,0,Wunderground v.1.15,2013-01-20 10:45:00,
2013-01-20 05:50:00,64.5,63.0,30.01,ESE,106,0.0,0.0,95,0.00,,,0.01,0,Wunderground v.1.15,2013-01-20 10:50:00,
2013-01-20 05:55:00,64.5,63.3,30.01,ESE,106,0.0,0.0,96,0.00,,,0.01,0,Wunderground v.1.15,2013-01-20 10:55:00,
2013-01-20 06:00:00,64.5,63.3,30.01,ESE,106,0.0,0.0,96,0.00,,,0.01,0,Wunderground v.1.15,2013-01-20 11:00:00,
2013-01-20 06:05:00,64.7,63.5,30.01,SE,127,0.0,5.0,96,0.00,,,0.01,0,Wunderground v.1.15,2013-01-20 11:05:00,
2013-01-20 06:15:00,64.7,63.5,30.01,East,92,1.0,1.0,96,0.00,,,0.01,0,Wunderground v.1.15,2013-01-20 11:15:00,
2013-01-20 06:20:00,64.5,63.3,30.01,SE,144,0.0,0.0,96,0.00,,,0.01,0,Wunderground v.1.15,2013-01-20 11:20:00,
2013-01-20 06:25:00,64.5,63.3,30.01,SE,144,0.0,0.0,96,0.00,,,0.01,0,Wunderground v.1.15,2013-01-20 11:25:00,
2013-01-20 06:30:00,64.5,63.3,30.02,SE,144,0.0,0.0,96,0.00,,,0.01,0,Wunderground v.1.15,2013-01-20 11:30:00,
2013-01-20 06:40:00,64.3,63.1,30.02,SE,137,0.0,0.0,96,0.00,,,0.01,0,Wunderground v.1.15,2013-01-20 11:40:00,
2013-01-20 06:45:00,64.3,63.1,30.02,SE,137,0.0,0.0,96,0.00,,,0.01,0,Wunderground v.1.15,2013-01-20 11:45:00,
2013-01-20 06:50:00,64.3,63.1,30.02,SE,137,0.0,0.0,96,0.00,,,0.01,0,Wunderground v.1.15,2013-01-20 11:50:00,
2013-01-20 06:55:00,64.3,63.1,30.02,SE,137,0.0,0.0,96,0.00,,,0.01,0,Wunderground v.1.15,2013-01-20 11:55:00,
2013-01-20 07:00:00,64.3,63.1,30.02,SE,137,0.0,0.0,96,0.00,,,0.01,0,Wunderground v.1.15,2013-01-20 12:00:00,
2013-01-20 07:05:00,64.3,63.1,30.02,SE,137,0.0,0.0,96,0.00,,,0.01,0,Wunderground v.1.15,2013-01-20 12:05:00,
2013-01-20 07:15:00,64.5,63.3,30.02,SE,137,0.0,0.0,96,0.00,,,0.01,0,Wunderground v.1.15,2013-01-20 12:15:00,
2013-01-20 07:20:00,64.5,63.3,30.02,SE,137,0.0,0.0,96,0.00,,,0.01,7,Wunderground v.1.15,2013-01-20 12:20:00,
2013-01-20 07:25:00,64.5,63.3,30.02,SE,137,0.0,0.0,96,0.00,,,0.01,11,Wunderground v.1.15,2013-01-20 12:25:00,
2013-01-20 07:35:00,64.5,63.3,30.02,SE,137,0.0,0.0,96,0.00,,,0.01,16,Wunderground v.1.15,2013-01-20 12:35:00,
2013-01-20 07:40:00,64.7,63.5,30.02,SE,137,0.0,0.0,96,0.00,,,0.01,25,Wunderground v.1.15,2013-01-20 12:40:00,
2013-01-20 07:45:00,64.7,63.5,30.03,SE,137,0.0,0.0,96,0.00,,,0.01,28,Wunderground v.1.15,2013-01-20 12:45:00,
2013-01-20 07:50:00,64.7,63.5,30.03,SE,137,0.0,0.0,96,0.00,,,0.01,40,Wunderground v.1.15,2013-01-20 12:50:00,
2013-01-20 07:55:00,64.8,63.6,30.03,SE,137,0.0,0.0,96,0.00,,,0.01,48,Wunderground v.1.15,2013-01-20 12:55:00,
2013-01-20 08:00:00,65.0,63.8,30.04,SE,137,0.0,0.0,96,0.00,,,0.01,60,Wunderground v.1.15,2013-01-20 13:00:00,
2013-01-20 08:05:00,65.0,63.8,30.04,SE,137,0.0,0.0,96,0.00,,,0.01,51,Wunderground v.1.15,2013-01-20 13:05:00,
2013-01-20 08:15:00,65.2,64.0,30.05,SE,137,0.0,0.0,96,0.00,,,0.01,55,Wunderground v.1.15,2013-01-20 13:15:00,
2013-01-20 08:25:00,65.5,64.3,30.05,SE,137,0.0,0.0,96,0.00,,,0.01,91,Wunderground v.1.15,2013-01-20 13:25:00,
2013-01-20 08:30:00,65.6,64.4,30.05,SE,137,0.0,0.0,96,0.00,,,0.01,114,Wunderground v.1.15,2013-01-20 13:30:00,
2013-01-20 08:35:00,66.0,64.8,30.05,SE,137,0.0,0.0,96,0.00,,,0.01,118,Wunderground v.1.15,2013-01-20 13:35:00,
2013-01-20 08:40:00,66.0,64.8,30.05,SE,137,0.0,0.0,96,0.00,,,0.01,106,Wunderground v.1.15,2013-01-20 13:40:00,
2013-01-20 08:45:00,66.0,64.8,30.05,SE,137,0.0,0.0,96,0.00,,,0.01,158,Wunderground v.1.15,2013-01-20 13:45:00,
2013-01-20 08:55:00,66.8,65.6,30.05,SE,137,0.0,0.0,96,0.00,,,0.01,146,Wunderground v.1.15,2013-01-20 13:55:00,
2013-01-20 09:00:00,66.6,65.4,30.06,SE,137,0.0,0.0,96,0.00,,,0.01,181,Wunderground v.1.15,2013-01-20 14:00:00,
2013-01-20 09:05:00,66.9,65.7,30.06,SE,137,0.0,0.0,96,0.00,,,0.01,201,Wunderground v.1.15,2013-01-20 14:05:00,
2013-01-20 09:15:00,67.1,65.9,30.06,SE,137,0.0,0.0,96,0.00,,,0.01,241,Wunderground v.1.15,2013-01-20 14:15:00,
2013-01-20 09:20:00,67.3,66.1,30.06,SE,137,0.0,0.0,96,0.00,,,0.01,310,Wunderground v.1.15,2013-01-20 14:20:00,
2013-01-20 09:30:00,68.1,66.9,30.06,SE,137,0.0,0.0,96,0.00,,,0.01,378,Wunderground v.1.15,2013-01-20 14:30:00,
2013-01-20 09:35:00,68.6,67.4,30.06,SE,137,0.0,0.0,96,0.00,,,0.01,392,Wunderground v.1.15,2013-01-20 14:35:00,
2013-01-20 09:40:00,69.4,68.2,30.06,SE,137,0.0,0.0,96,0.00,,,0.01,403,Wunderground v.1.15,2013-01-20 14:40:00,
2013-01-20 09:50:00,70.4,69.2,30.07,SE,137,0.0,0.0,96,0.00,,,0.01,232,Wunderground v.1.15,2013-01-20 14:50:00,
2013-01-20 09:55:00,70.9,69.4,30.07,SE,137,0.0,0.0,95,0.00,,,0.01,486,Wunderground v.1.15,2013-01-20 14:55:00,
2013-01-20 10:00:00,71.6,69.5,30.07,SE,137,0.0,0.0,93,0.00,,,0.01,470,Wunderground v.1.15,2013-01-20 15:00:00,
2013-01-20 10:05:00,72.0,68.9,30.07,SW,233,0.0,0.0,90,0.00,,,0.01,473,Wunderground v.1.15,2013-01-20 15:05:00,
2013-01-20 10:15:00,73.3,68.2,30.06,SW,219,0.0,0.0,84,0.00,,,0.01,523,Wunderground v.1.15,2013-01-20 15:15:00,
2013-01-20 10:20:00,74.0,68.5,30.06,SW,216,0.0,0.0,83,0.00,,,0.01,538,Wunderground v.1.15,2013-01-20 15:20:00,
2013-01-20 10:30:00,74.7,67.8,30.06,SSE,160,0.0,0.0,79,0.00,,,0.01,232,Wunderground v.1.15,2013-01-20 15:30:00,
2013-01-20 10:35:00,75.3,68.0,30.06,SSE,161,0.0,0.0,78,0.00,,,0.01,565,Wunderground v.1.15,2013-01-20 15:35:00,
2013-01-20 10:45:00,75.8,67.7,30.05,SE,130,0.0,0.0,76,0.00,,,0.01,619,Wunderground v.1.15,2013-01-20 15:45:00,
2013-01-20 10:50:00,75.8,67.3,30.05,SE,130,0.0,0.0,75,0.00,,,0.01,560,Wunderground v.1.15,2013-01-20 15:50:00,
2013-01-20 10:55:00,76.3,67.4,30.05,South,178,0.0,0.0,74,0.00,,,0.01,574,Wunderground v.1.15,2013-01-20 15:55:00,
2013-01-20 11:00:00,76.8,67.9,30.05,South,178,0.0,0.0,74,0.00,,,0.01,577,Wunderground v.1.15,2013-01-20 16:00:00,
2013-01-20 11:05:00,77.0,67.7,30.05,South,178,0.0,0.0,73,0.00,,,0.01,579,Wunderground v.1.15,2013-01-20 16:05:00,
2013-01-20 11:15:00,77.7,66.7,30.04,SE,137,0.0,0.0,69,0.00,,,0.01,596,Wunderground v.1.15,2013-01-20 16:15:00,
2013-01-20 11:20:00,78.1,67.5,30.04,ESE,120,0.0,0.0,70,0.00,,,0.01,605,Wunderground v.1.15,2013-01-20 16:20:00,
2013-01-20 11:25:00,78.1,68.3,30.04,SE,140,0.0,0.0,72,0.00,,,0.01,600,Wunderground v.1.15,2013-01-20 16:25:00,
2013-01-20 11:30:00,78.6,67.2,30.03,ESE,116,0.0,0.0,68,0.00,,,0.01,612,Wunderground v.1.15,2013-01-20 16:30:00,
2013-01-20 11:35:00,79.4,66.6,30.03,SE,128,0.0,0.0,65,0.00,,,0.01,625,Wunderground v.1.15,2013-01-20 16:35:00,
2013-01-20 11:40:00,78.8,66.0,30.03,SE,128,0.0,0.0,65,0.00,,,0.01,628,Wunderground v.1.15,2013-01-20 16:40:00,
2013-01-20 11:50:00,79.6,66.8,30.02,SE,128,0.0,0.0,65,0.00,,,0.01,630,Wunderground v.1.15,2013-01-20 16:50:00,
2013-01-20 11:55:00,80.5,66.3,30.02,SE,128,0.0,0.0,62,0.00,,,0.01,639,Wunderground v.1.15,2013-01-20 16:55:00,
2013-01-20 12:00:00,80.3,64.7,30.01,SE,128,0.0,0.0,59,0.00,,,0.01,646,Wunderground v.1.15,2013-01-20 17:00:00,
2013-01-20 12:05:00,80.3,65.6,30.01,SE,128,0.0,0.0,61,0.00,,,0.01,646,Wunderground v.1.15,2013-01-20 17:05:00,
2013-01-20 12:15:00,80.7,65.0,30.00,SW,227,0.0,0.0,59,0.00,,,0.01,653,Wunderground v.1.15,2013-01-20 17:15:00,
2013-01-20 12:20:00,80.7,66.0,30.00,SW,224,0.0,3.0,61,0.00,,,0.01,649,Wunderground v.1.15,2013-01-20 17:20:00,
2013-01-20 12:25:00,80.9,65.7,30.00,SW,224,0.0,3.0,60,0.00,,,0.01,648,Wunderground v.1.15,2013-01-20 17:25:00,
2013-01-20 12:30:00,81.4,65.2,29.99,South,184,0.0,0.0,58,0.00,,,0.01,656,Wunderground v.1.15,2013-01-20 17:30:00,
2013-01-20 12:35:00,81.4,65.7,29.99,SSW,202,0.0,0.0,59,0.00,,,0.01,656,Wunderground v.1.15,2013-01-20 17:35:00,
2013-01-20 12:45:00,81.8,65.1,29.97,SSW,196,0.0,1.0,57,0.00,,,0.01,653,Wunderground v.1.15,2013-01-20 17:45:00,
2013-01-20 12:50:00,82.4,65.1,29.97,South,186,0.0,0.0,56,0.00,,,0.01,651,Wunderground v.1.15,2013-01-20 17:50:00,
2013-01-20 12:55:00,82.6,65.3,29.97,SE,143,0.0,0.0,56,0.00,,,0.01,648,Wunderground v.1.15,2013-01-20 17:55:00,
2013-01-20 13:00:00,82.2,64.9,29.96,SSE,147,0.0,2.0,56,0.00,,,0.01,653,Wunderground v.1.15,2013-01-20 18:00:00,
2013-01-20 13:05:00,82.2,63.9,29.96,SE,143,1.0,2.0,54,0.00,,,0.01,653,Wunderground v.1.15,2013-01-20 18:05:00,
2013-01-20 13:15:00,83.2,64.3,29.96,SE,133,0.0,1.0,53,0.00,,,0.01,660,Wunderground v.1.15,2013-01-20 18:15:00,
2013-01-20 13:20:00,83.8,63.7,29.96,SE,133,0.0,0.0,51,0.00,,,0.01,674,Wunderground v.1.15,2013-01-20 18:20:00,
2013-01-20 13:25:00,83.2,63.7,29.96,SE,133,0.0,0.0,52,0.00,,,0.01,672,Wunderground v.1.15,2013-01-20 18:25:00,
2013-01-20 13:30:00,83.8,64.3,29.95,SE,133,0.0,0.0,52,0.00,,,0.01,669,Wunderground v.1.15,2013-01-20 18:30:00,
2013-01-20 13:40:00,84.7,64.0,29.95,SSW,192,0.0,0.0,50,0.00,,,0.01,706,Wunderground v.1.15,2013-01-20 18:40:00,
2013-01-20 13:45:00,84.9,62.4,29.95,SSW,212,1.0,1.0,47,0.00,,,0.01,748,Wunderground v.1.15,2013-01-20 18:45:00,
2013-01-20 13:50:00,84.7,63.4,29.95,SSW,212,0.0,0.0,49,0.00,,,0.01,723,Wunderground v.1.15,2013-01-20 18:50:00,
2013-01-20 13:55:00,84.9,61.8,29.95,SSW,212,0.0,0.0,46,0.00,,,0.01,730,Wunderground v.1.15,2013-01-20 18:55:00,
2013-01-20 14:05:00,84.9,61.2,29.94,SSW,208,1.0,1.0,45,0.00,,,0.01,700,Wunderground v.1.15,2013-01-20 19:05:00,
2013-01-20 14:15:00,84.9,62.4,29.94,SSW,213,0.0,1.0,47,0.00,,,0.01,192,Wunderground v.1.15,2013-01-20 19:15:00,
2013-01-20 14:25:00,84.7,62.8,29.94,SSW,198,0.0,0.0,48,0.00,,,0.01,220,Wunderground v.1.15,2013-01-20 19:25:00,
2013-01-20 14:30:00,84.9,63.6,29.94,SSW,198,0.0,0.0,49,0.00,,,0.01,190,Wunderground v.1.15,2013-01-20 19:30:00,
2013-01-20 14:35:00,84.3,63.6,29.94,SSE,162,0.0,0.0,50,0.00,,,0.01,201,Wunderground v.1.15,2013-01-20 19:35:00,
2013-01-20 14:45:00,83.4,63.9,29.93,SSW,195,0.0,0.0,52,0.00,,,0.01,273,Wunderground v.1.15,2013-01-20 19:45:00,
2013-01-20 14:55:00,83.6,63.0,29.93,SSW,195,0.0,0.0,50,0.00,,,0.01,252,Wunderground v.1.15,2013-01-20 19:55:00,
2013-01-20 15:00:00,83.4,62.8,29.93,SSW,195,0.0,0.0,50,0.00,,,0.01,269,Wunderground v.1.15,2013-01-20 20:00:00,
2013-01-20 15:05:00,83.4,63.4,29.93,SSW,195,0.0,0.0,51,0.00,,,0.01,243,Wunderground v.1.15,2013-01-20 20:05:00,
2013-01-20 15:15:00,83.4,62.8,29.93,SSW,195,0.0,0.0,50,0.00,,,0.01,176,Wunderground v.1.15,2013-01-20 20:15:00,
2013-01-20 15:20:00,83.4,62.8,29.93,SSW,195,0.0,0.0,50,0.00,,,0.01,185,Wunderground v.1.15,2013-01-20 20:20:00,
2013-01-20 15:25:00,83.2,62.6,29.93,SSW,202,0.0,0.0,50,0.00,,,0.01,146,Wunderground v.1.15,2013-01-20 20:25:00,
2013-01-20 15:30:00,83.0,63.0,29.93,SSW,202,0.0,0.0,51,0.00,,,0.01,120,Wunderground v.1.15,2013-01-20 20:30:00,
2013-01-20 15:35:00,82.8,65.0,29.93,SW,227,0.0,0.0,55,0.00,,,0.01,135,Wunderground v.1.15,2013-01-20 20:35:00,
2013-01-20 15:45:00,81.8,66.1,29.93,West,277,0.0,0.0,59,0.00,,,0.01,106,Wunderground v.1.15,2013-01-20 20:45:00,
2013-01-20 15:50:00,81.2,66.0,29.93,West,275,0.0,0.0,60,0.00,,,0.01,132,Wunderground v.1.15,2013-01-20 20:50:00,
2013-01-20 15:55:00,80.7,66.5,29.93,WNW,291,1.0,3.0,62,0.00,,,0.01,143,Wunderground v.1.15,2013-01-20 20:55:00,
2013-01-20 16:00:00,80.3,66.6,29.93,WNW,296,2.0,2.0,63,0.00,,,0.01,139,Wunderground v.1.15,2013-01-20 21:00:00,
2013-01-20 16:05:00,79.8,66.1,29.93,WNW,291,2.0,2.0,63,0.00,,,0.01,114,Wunderground v.1.15,2013-01-20 21:05:00,
2013-01-20 16:15:00,79.2,66.0,29.93,WNW,287,1.0,2.0,64,0.00,,,0.01,121,Wunderground v.1.15,2013-01-20 21:15:00,
2013-01-20 16:20:00,79.0,66.2,29.93,WNW,287,0.0,0.0,65,0.00,,,0.01,174,Wunderground v.1.15,2013-01-20 21:20:00,
2013-01-20 16:25:00,78.8,66.5,29.93,WNW,287,0.0,0.0,66,0.00,,,0.01,134,Wunderground v.1.15,2013-01-20 21:25:00,
2013-01-20 16:30:00,78.8,66.5,29.94,WNW,288,0.0,0.0,66,0.00,,,0.01,81,Wunderground v.1.15,2013-01-20 21:30:00,
2013-01-20 16:40:00,78.6,66.3,29.94,WNW,287,0.0,0.0,66,0.00,,,0.01,209,Wunderground v.1.15,2013-01-20 21:40:00,
2013-01-20 16:45:00,78.5,66.2,29.94,West,277,2.0,3.0,66,0.00,,,0.01,51,Wunderground v.1.15,2013-01-20 21:45:00,
2013-01-20 16:50:00,78.3,66.4,29.94,WNW,285,3.0,3.0,67,0.00,,,0.01,123,Wunderground v.1.15,2013-01-20 21:50:00,
2013-01-20 17:00:00,77.7,66.3,29.94,WNW,285,3.0,3.0,68,0.00,,,0.01,135,Wunderground v.1.15,2013-01-20 22:00:00,
2013-01-20 17:05:00,77.6,66.6,29.94,WNW,288,2.0,3.0,69,0.00,,,0.01,141,Wunderground v.1.15,2013-01-20 22:05:00,
2013-01-20 17:15:00,77.4,66.4,29.95,WNW,298,1.0,4.0,69,0.00,,,0.01,93,Wunderground v.1.15,2013-01-20 22:15:00,
2013-01-20 17:20:00,77.0,66.5,29.95,WNW,289,3.0,3.0,70,0.00,,,0.01,77,Wunderground v.1.15,2013-01-20 22:20:00,
2013-01-20 17:25:00,76.8,66.7,29.95,WSW,250,3.0,3.0,71,0.00,,,0.01,40,Wunderground v.1.15,2013-01-20 22:25:00,
2013-01-20 17:30:00,76.5,66.8,29.95,West,280,1.0,1.0,72,0.00,,,0.01,16,Wunderground v.1.15,2013-01-20 22:30:00,
2013-01-20 17:40:00,76.0,66.7,29.95,WSW,258,1.0,3.0,73,0.00,,,0.01,7,Wunderground v.1.15,2013-01-20 22:40:00,
2013-01-20 17:45:00,75.6,66.3,29.95,West,268,1.0,3.0,73,0.00,,,0.01,7,Wunderground v.1.15,2013-01-20 22:45:00,
2013-01-20 17:50:00,75.4,66.5,29.95,West,281,1.0,2.0,74,0.00,,,0.01,5,Wunderground v.1.15,2013-01-20 22:50:00,
2013-01-20 18:00:00,74.9,66.4,29.95,West,265,1.0,1.0,75,0.00,,,0.01,0,Wunderground v.1.15,2013-01-20 23:00:00,
2013-01-20 18:05:00,74.9,66.8,29.95,WNW,287,1.0,1.0,76,0.00,,,0.01,0,Wunderground v.1.15,2013-01-20 23:05:00,
2013-01-20 18:15:00,74.6,66.5,29.95,WNW,285,1.0,1.0,76,0.00,,,0.01,0,Wunderground v.1.15,2013-01-20 23:15:00,
2013-01-20 18:20:00,74.4,66.3,29.95,WNW,298,1.0,1.0,76,0.00,,,0.01,0,Wunderground v.1.15,2013-01-20 23:20:00,
2013-01-20 18:25:00,74.4,66.7,29.95,WNW,289,0.0,1.0,77,0.00,,,0.01,0,Wunderground v.1.15,2013-01-20 23:25:00,
2013-01-20 18:30:00,74.2,66.5,29.96,WNW,289,0.0,0.0,77,0.00,,,0.01,0,Wunderground v.1.15,2013-01-20 23:30:00,
2013-01-20 18:35:00,74.2,66.5,29.96,WNW,289,0.0,0.0,77,0.00,,,0.01,0,Wunderground v.1.15,2013-01-20 23:35:00,
2013-01-20 18:45:00,74.0,66.7,29.96,WNW,289,0.0,0.0,78,0.00,,,0.01,0,Wunderground v.1.15,2013-01-20 23:45:00,
2013-01-20 18:50:00,73.9,66.6,29.96,WNW,289,0.0,0.0,78,0.00,,,0.01,0,Wunderground v.1.15,2013-01-20 23:50:00,
2013-01-20 18:55:00,73.9,66.6,29.96,WNW,289,0.0,0.0,78,0.00,,,0.01,0,Wunderground v.1.15,2013-01-20 23:55:00,
2013-01-20 19:00:00,73.9,66.6,29.96,WNW,289,0.0,0.0,78,0.00,,,0.01,0,Wunderground v.1.15,2013-01-21 00:00:00,
2013-01-20 19:05:00,73.9,67.0,29.96,WNW,291,0.0,0.0,79,0.00,,,0.01,0,Wunderground v.1.15,2013-01-21 00:05:00,
2013-01-20 19:15:00,73.7,66.8,29.96,WNW,291,0.0,0.0,79,0.00,,,0.01,0,Wunderground v.1.15,2013-01-21 00:15:00,
2013-01-20 19:20:00,73.7,66.8,29.96,WNW,291,0.0,0.0,79,0.00,,,0.01,0,Wunderground v.1.15,2013-01-21 00:20:00,
2013-01-20 19:30:00,73.5,66.6,29.96,WNW,291,0.0,0.0,79,0.00,,,0.01,0,Wunderground v.1.15,2013-01-21 00:30:00,
2013-01-20 19:35:00,73.5,66.6,29.96,WNW,291,0.0,0.0,79,0.00,,,0.01,0,Wunderground v.1.15,2013-01-21 00:35:00,
2013-01-20 19:40:00,73.3,66.4,29.96,WNW,291,0.0,0.0,79,0.00,,,0.01,0,Wunderground v.1.15,2013-01-21 00:40:00,
2013-01-20 19:45:00,73.3,66.8,29.96,WNW,291,0.0,0.0,80,0.00,,,0.01,0,Wunderground v.1.15,2013-01-21 00:45:00,
2013-01-20 19:55:00,73.0,66.5,29.96,WNW,291,0.0,0.0,80,0.00,,,0.01,0,Wunderground v.1.15,2013-01-21 00:55:00,
2013-01-20 20:00:00,72.8,66.3,29.96,WNW,291,0.0,0.0,80,0.00,,,0.01,0,Wunderground v.1.15,2013-01-21 01:00:00,
2013-01-20 20:05:00,72.7,66.2,29.96,WNW,291,0.0,0.0,80,0.00,,,0.01,0,Wunderground v.1.15,2013-01-21 01:05:00,
2013-01-20 20:15:00,72.5,66.0,29.97,WNW,291,0.0,0.0,80,0.00,,,0.01,0,Wunderground v.1.15,2013-01-21 01:15:00,
2013-01-20 20:20:00,72.3,65.8,29.97,WNW,291,0.0,0.0,80,0.00,,,0.01,0,Wunderground v.1.15,2013-01-21 01:20:00,
2013-01-20 20:30:00,72.0,65.8,29.97,WNW,291,0.0,0.0,81,0.00,,,0.01,0,Wunderground v.1.15,2013-01-21 01:30:00,
2013-01-20 20:35:00,72.0,65.8,29.97,WNW,291,0.0,0.0,81,0.00,,,0.01,0,Wunderground v.1.15,2013-01-21 01:35:00,
2013-01-20 20:40:00,71.8,66.0,29.97,WNW,291,0.0,0.0,82,0.00,,,0.01,0,Wunderground v.1.15,2013-01-21 01:40:00,
2013-01-20 20:45:00,71.6,65.8,29.97,WNW,291,0.0,0.0,82,0.00,,,0.01,0,Wunderground v.1.15,2013-01-21 01:45:00,
2013-01-20 20:50:00,71.6,66.2,29.97,WNW,291,0.0,0.0,83,0.00,,,0.01,0,Wunderground v.1.15,2013-01-21 01:50:00,
2013-01-20 20:55:00,71.5,66.1,29.97,WNW,291,0.0,0.0,83,0.00,,,0.01,0,Wunderground v.1.15,2013-01-21 01:55:00,
2013-01-20 21:05:00,71.3,66.2,29.97,WNW,291,0.0,0.0,84,0.00,,,0.01,0,Wunderground v.1.15,2013-01-21 02:05:00,
2013-01-20 21:15:00,71.3,66.6,29.98,SSE,150,0.0,0.0,85,0.00,,,0.01,0,Wunderground v.1.15,2013-01-21 02:15:00,
2013-01-20 21:20:00,71.3,66.6,29.98,SSE,150,0.0,0.0,85,0.00,,,0.01,0,Wunderground v.1.15,2013-01-21 02:20:00,
2013-01-20 21:25:00,71.3,66.6,29.98,SSE,150,0.0,0.0,85,0.00,,,0.01,0,Wunderground v.1.15,2013-01-21 02:25:00,
2013-01-20 21:30:00,71.3,66.6,29.98,SSE,150,0.0,0.0,85,0.00,,,0.01,0,Wunderground v.1.15,2013-01-21 02:30:00,
2013-01-20 21:35:00,71.3,66.9,29.98,SSE,150,0.0,0.0,86,0.00,,,0.01,0,Wunderground v.1.15,2013-01-21 02:35:00,
2013-01-20 21:45:00,71.1,66.7,29.98,SSE,150,0.0,0.0,86,0.00,,,0.01,0,Wunderground v.1.15,2013-01-21 02:45:00,
2013-01-20 21:50:00,70.9,66.5,29.98,SSE,150,0.0,0.0,86,0.00,,,0.01,0,Wunderground v.1.15,2013-01-21 02:50:00,
2013-01-20 21:55:00,70.8,66.4,29.98,SSE,150,0.0,0.0,86,0.00,,,0.01,0,Wunderground v.1.15,2013-01-21 02:55:00,
2013-01-20 22:00:00,70.8,66.4,29.98,SSE,150,0.0,0.0,86,0.00,,,0.01,0,Wunderground v.1.15,2013-01-21 03:00:00,
2013-01-20 22:05:00,70.6,66.2,29.98,SSE,150,0.0,0.0,86,0.00,,,0.01,0,Wunderground v.1.15,2013-01-21 03:05:00,
2013-01-20 22:15:00,70.4,66.3,29.98,SSE,150,0.0,0.0,87,0.00,,,0.01,0,Wunderground v.1.15,2013-01-21 03:15:00,
2013-01-20 22:20:00,70.3,66.2,29.98,SSE,150,0.0,0.0,87,0.00,,,0.01,0,Wunderground v.1.15,2013-01-21 03:20:00,
2013-01-20 22:30:00,69.9,65.9,29.98,SSE,150,0.0,0.0,87,0.00,,,0.01,0,Wunderground v.1.15,2013-01-21 03:30:00,
2013-01-20 22:35:00,69.9,66.2,29.98,SSE,150,0.0,0.0,88,0.00,,,0.01,0,Wunderground v.1.15,2013-01-21 03:35:00,
2013-01-20 22:40:00,69.8,66.1,29.98,SSE,150,0.0,0.0,88,0.00,,,0.01,0,Wunderground v.1.15,2013-01-21 03:40:00,
2013-01-20 22:45:00,69.8,66.1,29.98,SSE,150,0.0,0.0,88,0.00,,,0.01,0,Wunderground v.1.15,2013-01-21 03:45:00,
2013-01-20 22:50:00,69.6,65.9,29.98,SSE,150,0.0,0.0,88,0.00,,,0.01,0,Wunderground v.1.15,2013-01-21 03:50:00,
2013-01-20 23:00:00,69.4,65.7,29.97,SSE,150,0.0,0.0,88,0.00,,,0.01,0,Wunderground v.1.15,2013-01-21 04:00:00,
2013-01-20 23:05:00,69.4,66.0,29.97,SSE,150,0.0,0.0,89,0.00,,,0.01,0,Wunderground v.1.15,2013-01-21 04:05:00,
2013-01-20 23:15:00,69.1,65.7,29.97,SSE,150,0.0,0.0,89,0.00,,,0.01,0,Wunderground v.1.15,2013-01-21 04:15:00,
2013-01-20 23:20:00,69.1,65.7,29.97,SSE,150,0.0,0.0,89,0.00,,,0.01,0,Wunderground v.1.15,2013-01-21 04:20:00,
2013-01-20 23:25:00,68.9,65.5,29.97,SSE,150,0.0,0.0,89,0.00,,,0.01,0,Wunderground v.1.15,2013-01-21 04:25:00,
2013-01-20 23:30:00,68.8,65.4,29.97,SSE,150,0.0,0.0,89,0.00,,,0.01,0,Wunderground v.1.15,2013-01-21 04:30:00,
2013-01-20 23:40:00,68.6,65.5,29.97,SSE,150,0.0,0.0,90,0.00,,,0.01,0,Wunderground v.1.15,2013-01-21 04:40:00,
2013-01-20 23:45:00,68.4,65.4,29.97,SSE,150,0.0,0.0,90,0.00,,,0.01,0,Wunderground v.1.15,2013-01-21 04:45:00,
2013-01-20 23:50:00,68.3,65.3,29.97,SSE,150,0.0,0.0,90,0.00,,,0.01,0,Wunderground v.1.15,2013-01-21 04:50:00,
2013-01-20 23:55:00,68.3,65.3,29.97,SSE,150,0.0,0.0,90,0.00,,,0.01,0,Wunderground v.1.15,2013-01-21 04:55:00,